Location: City of Britt
(43.0975°N, 93.8032°W)
Time: 15:41:17
(UTC+00:00)

BlueWalker 3 - Visible Passes

Search period start: 06 October 2024 00:00
Search period end: 16 October 2024 00:00
Orbit: 473 x 485 km, 53.2° (Epoch: 05 October)

Date Brightness Start Highest point End Pass type
(mag) Time Alt. Az. Time Alt. Az. Time Alt. Az.
06 Oct 1.7 10:50:54 38° WSW 10:52:13 85° NW 10:55:56 10° NE visible
07 Oct 1.8 10:24:09 82° E 10:24:09 82° E 10:27:43 10° NE visible
08 Oct 3.5 09:57:16 34° ENE 09:57:16 34° ENE 09:59:28 10° ENE visible
08 Oct 3.2 11:31:29 13° WNW 11:34:04 25° NNW 11:37:12 10° NE visible
09 Oct 4.7 09:30:18 16° ENE 09:30:18 16° ENE 09:31:11 10° ENE visible
09 Oct 3.2 11:04:30 22° NW 11:05:44 27° NNW 11:08:56 10° NE visible
10 Oct 3.1 10:37:25 28° NNW 10:37:25 28° NNW 10:40:38 10° NE visible
11 Oct 3.7 10:10:16 24° NNE 10:10:16 24° NNE 10:12:17 10° NE visible
11 Oct 3.9 11:45:19 10° NW 11:47:49 17° N 11:50:19 10° NE visible
12 Oct 4.6 09:43:02 15° NE 09:43:02 15° NE 09:43:54 10° NE visible
12 Oct 3.9 11:17:13 12° NW 11:19:20 17° N 11:21:51 10° NE visible
13 Oct 3.9 10:49:56 16° NNW 10:50:49 17° N 10:53:21 10° NE visible
14 Oct 4.0 10:22:36 17° N 10:22:36 17° N 10:24:49 10° NE visible
15 Oct 4.6 09:55:14 14° NNE 09:55:14 14° NNE 09:56:16 10° NE visible
15 Oct 3.9 11:29:49 10° NW 11:32:38 20° NNE 11:35:27 10° ENE visible
